User: anonymous   Login
Location: Unspecified
(48.7670°N, 0.0000°E)
Time: 04:56:48
(UTC+00:00)
Language:

A-11 Canister half - Orbit

View from above orbital plane
View from above orbital plane
View from above satellite
View from above satellite

Ground track
Ground track

The orbit data is extracted from the following two-line orbital elements,

1    51U 60009C   19168.79393872 -.00000029 +00000-0 +54003-3 0  9991
2    51 047.2148 038.6758 0105244 155.0323 205.5606 12.18271783619512
Epoch (UTC): 17 June 2019 19:03:16
Eccentricity: 0.0105244
inclination: 47.2148°
perigee height: 1516 km
apogee height: 1684 km
right ascension of ascending node: 38.6758°
argument of perigee: 155.0323°
revolutions per day: 12.18271783
mean anomaly at epoch: 205.5606°
orbit number at epoch: 61951

The dashed part of the orbit path shows where the satellite is in the earth's shadow,  

DLR